Regional Weather Roundup
Issued by NWS

Home | Current Version | Previous Version | Text Only | Print | Product List | Glossary Off
Versions: 1 2 3 4 5 6 7 8 9 10 11 12 13 14 15 16 17 18 19 20 21 22 23 24 25 26 27 28 29 30 31 32 33 34 35 36 37 38 39 40 41 42 43 44 45 46 47 48 49 50

000
ASUS43 KDTX 191810
RWRMI
MICHIGAN HOURLY REGIONAL WEATHER ROUNDUP
NATIONAL WEATHER SERVICE DETROIT/PONTIAC MI
200 PM EDT SAT APR 19 2014

NOTE: "FAIR" INDICATES FEW OR NO CLOUDS BELOW 12,000 FEET WITH NO
SIGNIFICANT WEATHER AND/OR OBSTRUCTION TO VISIBILITY.

MIZ047>049-052>055-059>063-066>070-074>076-081>083-191900-
SOUTHEAST LOWER MICHIGAN

CITY           SKY/WX    TMP DP  RH WIND       PRES   REMARKS
ADRIAN         SUNNY     53  31  42 SE12      30.41F
6HR MIN TEMP:  36; 6HR MAX TEMP:  53;

ALMA           SUNNY     51  29  43 E9G17     30.41F
ANN ARBOR      SUNNY     55  24  30 E10       30.41F
BAD AXE        SUNNY     46  29  52 E5G18     30.47F
6HR MIN TEMP:  33; 6HR MAX TEMP:  46;

CARO           SUNNY     52  30  42 CALM      30.43F
DETROIT CITY   SUNNY     52  28  39 E7        30.45S
6HR MIN TEMP:  37; 6HR MAX TEMP:  53;

DETROIT        MOSUNNY   54  22  28 E8        30.44F
6HR MIN TEMP:  36; 6HR MAX TEMP:  54;

FLINT          SUNNY     54  30  40 E12       30.43F
6HR MIN TEMP:  35; 6HR MAX TEMP:  55;

GROSSE ILE     SUNNY     50  32  50 S13       30.42F
HILLSDALE      SUNNY     54  29  38 SE9       30.39F
HOWELL         SUNNY     53  20  28 E9        30.41F
6HR MIN TEMP:  33; 6HR MAX TEMP:  53;


CITY           SKY/WX    TMP DP  RH WIND       PRES   REMARKS
JACKSON        SUNNY     55  27  34 E7        30.39F
6HR MIN TEMP:  34; 6HR MAX TEMP:  56;

LAMBERTVILLE   SUNNY     50  30  46 E9G17     30.43F
LANSING        SUNNY     54  26  34 E10       30.40F
6HR MIN TEMP:  33; 6HR MAX TEMP:  54;

LAPEER         FAIR      50  29  45 E7        30.44F
MASON          SUNNY     54  28  36 E8        30.40F
MONROE         SUNNY     50  32  50 SE10G17   30.42S
MT. CLEMENS    SUNNY     51  29  42 E9        30.43S
6HR MIN TEMP:  35; 6HR MAX TEMP:  51;

PONTIAC        MOSUNNY   52  27  38 NE12      30.42F
6HR MIN TEMP:  34; 6HR MAX TEMP:  52;

PORT HOPE        N/A     38  32  79 NE7       30.47F WCI  33
6HR MIN TEMP:  36; 6HR MAX TEMP:  38;

PORT HURON     SUNNY     48  28  46 N7        30.46S
TRI CITIES     MOSUNNY   50  35  56 NE13G18   30.45F
6HR MIN TEMP:  33; 6HR MAX TEMP:  50;

TROY           SUNNY     52  27  37 NE6       30.44F
SAGINAW HB     SUNNY     52  30  43 E10       30.43F
YPSILANTI      SUNNY     57  22  25 NE12      30.43F
6HR MIN TEMP:  38; 6HR MAX TEMP:  58;

$$
MIZ043>046-050>051-056>058-064>065-071>073-077>080-191900-
SOUTHWEST LOWER MICHIGAN

CITY           SKY/WX    TMP DP  RH WIND       PRES   REMARKS
BATTLE CREEK   SUNNY     55  28  35 VRB3G18   30.38F
6HR MIN TEMP:  35; 6HR MAX TEMP:  56;

BENTON HARBOR  SUNNY     59  33  37 E12       30.34F
6HR MIN TEMP:  36; 6HR MAX TEMP:  60;

BIG RAPIDS     MOSUNNY   52  26  37 S15       30.38F
6HR MIN TEMP:  30; 6HR MAX TEMP:  52;

COLDWATER      SUNNY     56  27  32 E13       30.38F
6HR MIN TEMP:  36; 6HR MAX TEMP:  56;

FREMONT        FAIR      54  24  32 E12G17    30.38F
6HR MIN TEMP:  33; 6HR MAX TEMP:  54;

HOLLAND        PTSUNNY   58  33  39 E15       30.37F
6HR MIN TEMP:  36; 6HR MAX TEMP:  58;

GRAND RAPIDS   PTSUNNY   55  31  39 E13       30.39F
6HR MIN TEMP:  35; 6HR MAX TEMP:  55;

IONIA          FAIR      53  28  38 E12G21    30.39F
KALAMAZOO      SUNNY     57  30  35 SE8G16    30.37F
6HR MIN TEMP:  36; 6HR MAX TEMP:  58;

LUDINGTON      MOSUNNY   55  24  30 SE10      30.36F
6HR MIN TEMP:  29; 6HR MAX TEMP:  55;

MARSHALL       SUNNY     55  28  34 E5        30.37F
MOUNT PLEASANT SUNNY     51  30  44 E13       30.42F
6HR MIN TEMP:  32; 6HR MAX TEMP:  52;

MUSKEGON       CLOUDY    57  29  34 SE15G23   30.37F
6HR MIN TEMP:  34; 6HR MAX TEMP:  57;

SOUTH HAVEN    MOSUNNY   59  32  35 SE10G16   30.35F
$$
MIZ016>042-191900-
NORTHERN LOWER MICHIGAN

CITY           SKY/WX    TMP DP  RH WIND       PRES   REMARKS
ALPENA         SUNNY     42  29  59 E13       30.48F
6HR MIN TEMP:  30; 6HR MAX TEMP:  43;

BEAVER ISLAND  MOSUNNY   44  29  54 E10       30.41F
6HR MIN TEMP:  29; 6HR MAX TEMP:  45;

BELLAIRE       MOSUNNY   55  24  30 SE10G18   30.38F
6HR MIN TEMP:  29; 6HR MAX TEMP:  55;

CADILLAC       SUNNY     51  28  41 SE13G22   30.35F
CHARLEVOIX     MOSUNNY   51  27  40 E10       30.42F
6HR MIN TEMP:  30; 6HR MAX TEMP:  51;

FRANKFORT      SUNNY     49  30  48 W3        30.37F
GAYLORD        MOSUNNY   49  24  37 SE10      30.38F
6HR MIN TEMP:  28; 6HR MAX TEMP:  49;

GRAYLING       SUNNY     53  22  30 SE8G18    30.40F
6HR MIN TEMP:  28; 6HR MAX TEMP:  53;

HARBOR SPRINGS MOSUNNY   51  28  40 E7        30.40F
HOUGHTON LAKE  SUNNY     51  26  37 SE10G23   30.40F
6HR MIN TEMP:  28; 6HR MAX TEMP:  52;

MANISTEE       MOSUNNY   54  21  28 SE8       30.37F
OSCODA         SUNNY     42  31  65 E9        30.50S
PELLSTON       MOSUNNY   49  27  42 E17       30.42F
6HR MIN TEMP:  29; 6HR MAX TEMP:  50;

ROGERS CITY    SUNNY     41  32  70 E12       30.47F
TRAVERSE CITY  PTSUNNY   55  25  31 E14G21    30.36F
6HR MIN TEMP:  28; 6HR MAX TEMP:  55;

$$
MIZ007>008-015-191900-
EASTERN UPPER MICHIGAN

CITY           SKY/WX    TMP DP  RH WIND       PRES   REMARKS
KINROSS        PTSUNNY   39  28  65 SE13G20   30.45F WCI  32
6HR MIN TEMP:  27; 6HR MAX TEMP:  41;

MACKINAC ISLAN MOSUNNY   36  28  72 E15G23    30.45F WCI  26
6HR MIN TEMP:  27; 6HR MAX TEMP:  37;

NEWBERRY       PTSUNNY   40  26  56 SE10G17   30.41F WCI  33
S. S. MARIE    CLOUDY    41  22  46 SE13      30.45F
6HR MIN TEMP:  26; 6HR MAX TEMP:  41;

MUNISING         N/A     45  24  43 S17G29    30.36F
6HR MIN TEMP:  30; 6HR MAX TEMP:  45;

$$
MIZ004>006-011>014-085-191900-
CENTRAL UPPER MICHIGAN

CITY           SKY/WX    TMP DP  RH WIND       PRES   REMARKS
MANISTIQUE     MOSUNNY   39  30  69 E8        30.43S WCI  34
ESCANABA       PTSUNNY   37  30  75 SE13      30.39F WCI  29
6HR MIN TEMP:  28; 6HR MAX TEMP:  37;

MENOMINEE      MOSUNNY   43  28  56 SE10      30.36F
6HR MIN TEMP:  30; 6HR MAX TEMP:  43;

SAWYER-GWINN   SUNNY     41  27  56 S23       30.33F
$$
MIZ001>003-009>011-084-191900-
WESTERN UPPER MICHIGAN

CITY           SKY/WX    TMP DP  RH WIND       PRES   REMARKS
IRON MOUNTAIN  MOSUNNY   44  26  49 S14G24    30.29F
6HR MIN TEMP:  27; 6HR MAX TEMP:  44;

HOUGHTON       LGT RAIN  34  28  79 E16       30.20F WCI  24
6HR MIN TEMP:  30; 6HR MAX TEMP:  36; 6HR PCP: TRACE;

COPPER HARBOR    N/A     37  29  72 S15G29    30.26F WCI  28
6HR MIN TEMP:  32; 6HR MAX TEMP:  37;

IRONWOOD       CLOUDY    46  25  42 S21G30    30.04F
6HR MIN TEMP:  34; 6HR MAX TEMP:  46;

$$

ABBREVIATIONS USED IN REMARKS
   TC - TEMPERATURE IN CELSIUS
  WCI - WIND CHILL INDEX
   HX - HEAT INDEX
  VSB - VISIBILITY




USA.gov is the U.S. government's official web portal to all federal, state and local government web resources and services.